| time (UTC) | temp C | wind direction | speed KPH | gust KPH | rain 1hr cm | rain 24hr cm | rain mn cm | humidity % | barometer mb |
| 20260504081549 | 2 | 191 | 8.0 | 16.1 | 0.15 | 1.42 | 0.36 | 91 | 975.5 |
| 20260504050005 | 3 | 348 | 0.0 | 6.4 | 0.00 | 1.09 | 0.00 | 89 | 973.3 |
| 20260504044505 | 3 | 348 | 4.8 | 19.3 | 0.00 | 1.09 | 0.00 | 88 | 973.7 |
| 20260504043109 | 3 | 49 | 8.0 | 16.1 | 0.00 | 1.09 | 0.00 | 88 | 974.0 |
| 20260504041555 | 4 | 267 | 1.6 | 12.9 | 0.00 | 1.09 | 0.00 | 88 | 974.7 |
| 20260504040050 | 4 | 12 | 3.2 | 12.9 | 0.00 | 1.09 | 0.00 | 88 | 975.1 |
| 20260504034546 | 4 | 55 | 8.0 | 14.5 | 0.00 | 1.09 | 0.00 | 87 | 975.7 |
| 20260504033041 | 5 | 237 | 6.4 | 16.1 | 0.00 | 1.09 | 0.00 | 88 | 976.0 |
| 20260504031539 | 5 | 20 | 12.9 | 24.1 | 0.00 | 1.09 | 0.00 | 88 | 976.2 |
| 20260504030033 | 5 | 318 | 3.2 | 24.1 | 0.00 | 1.09 | 0.00 | 88 | 976.3 |
| 20260504024530 | 5 | 22 | 6.4 | 25.7 | 0.00 | 1.09 | 1.09 | 89 | 976.9 |
| 20260504023027 | 4 | 21 | 6.4 | 24.1 | 0.03 | 1.09 | 1.09 | 88 | 977.9 |
| 20260504021520 | 4 | 11 | 12.9 | 29.0 | 0.03 | 1.09 | 1.09 | 88 | 978.9 |
| 20260504020017 | 3 | 304 | 9.7 | 32.2 | 0.03 | 1.09 | 1.09 | 88 | 979.1 |
| 20260504014519 | 4 | 355 | 16.1 | 43.5 | 0.05 | 1.09 | 1.09 | 88 | 980.5 |
| 20260504013011 | 4 | 96 | 14.5 | 30.6 | 0.03 | 1.07 | 1.07 | 87 | 981.4 |
| 20260504011503 | 4 | 45 | 19.3 | 51.5 | 0.03 | 1.07 | 1.07 | 87 | 982.1 |
| 20260504010114 | 5 | 5 | 24.1 | 51.5 | 0.05 | 1.07 | 1.07 | 88 | 983.2 |
| 20260504004555 | 5 | 28 | 14.5 | 33.8 | 0.10 | 1.04 | 1.04 | 88 | 983.8 |
| 20260504003049 | 4 | 16 | 9.7 | 32.2 | 0.18 | 1.04 | 1.04 | 88 | 984.4 |
| 20260504001558 | 4 | 27 | 22.5 | 41.8 | 0.20 | 1.04 | 1.04 | 88 | 985.1 |
| 20260504000047 | 4 | 30 | 20.9 | 45.1 | 0.23 | 1.02 | 1.02 | 88 | 986.0 |
| 20260503234538 | 4 | 109 | 9.7 | 40.2 | 0.15 | 0.94 | 0.94 | 88 | 986.8 |
| 20260503233034 | 4 | 42 | 27.4 | 49.9 | 0.10 | 0.86 | 0.86 | 88 | 987.7 |
| 20260503231536 | 3 | 360 | 16.1 | 41.8 | 0.18 | 0.84 | 0.84 | 88 | 988.4 |
| 20260503230028 | 3 | 5 | 17.7 | 48.3 | 0.23 | 0.79 | 0.79 | 88 | 989.2 |
| 20260503224528 | 3 | 29 | 19.3 | 40.2 | 0.23 | 0.79 | 0.79 | 88 | 990.8 |
| 20260503223019 | 3 | 332 | 11.3 | 25.7 | 0.28 | 0.76 | 0.76 | 89 | 991.8 |
| 20260503221516 | 3 | 350 | 4.8 | 19.3 | 0.28 | 0.66 | 0.66 | 89 | 992.5 |
| 20260503220017 | 3 | 325 | 4.8 | 14.5 | 0.28 | 0.58 | 0.58 | 88 | 992.7 |
| 20260503214521 | 2 | 343 | 8.0 | 22.5 | 0.23 | 0.53 | 0.53 | 88 | 992.9 |
| 20260503213005 | 2 | 360 | 4.8 | 29.0 | 0.20 | 0.48 | 0.48 | 88 | 993.6 |
| 20260503211502 | 3 | 355 | 12.9 | 37.0 | 0.13 | 0.36 | 0.36 | 88 | 994.1 |
| 20260503210058 | 4 | 84 | 25.7 | 45.1 | 0.10 | 0.30 | 0.30 | 86 | 994.8 |
| 20260503204606 | 5 | 49 | 8.0 | 27.4 | 0.18 | 0.30 | 0.30 | 87 | 995.0 |
| 20260503203058 | 5 | 28 | 6.4 | 16.1 | 0.18 | 0.28 | 0.28 | 87 | 995.8 |
| 20260503201544 | 5 | 341 | 11.3 | 24.1 | 0.18 | 0.23 | 0.23 | 87 | 996.4 |
| 20260503200045 | 5 | 30 | 4.8 | 17.7 | 0.20 | 0.20 | 0.20 | 87 | 997.6 |
| 20260503194536 | 5 | 347 | 9.7 | 24.1 | 0.13 | 0.13 | 0.13 | 86 | 998.0 |
| 20260503193033 | 5 | 13 | 9.7 | 17.7 | 0.10 | 0.10 | 0.10 | 85 | 999.4 |
| 20260503191529 | 5 | 32 | 4.8 | 16.1 | 0.05 | 0.05 | 0.05 | 81 | 1000.7 |
| 20260503190020 | 6 | 38 | 11.3 | 30.6 | 0.00 | 0.00 | 0.00 | 75 | 1001.8 |
| 20260503184521 | 6 | 71 | 6.4 | 27.4 | 0.00 | 0.00 | 0.00 | 71 | 1002.1 |
| 20260503183013 | 8 | 36 | 8.0 | 20.9 | 0.00 | 0.00 | 0.00 | 64 | 1002.7 |
| 20260503181508 | 8 | 17 | 4.8 | 16.1 | 0.00 | 0.00 | 0.00 | 59 | 1003.7 |
| 20260503180006 | 9 | 90 | 4.8 | 9.7 | 0.00 | 0.00 | 0.00 | 54 | 1004.1 |
| 20260503174504 | 9 | 54 | 4.8 | 17.7 | 0.00 | 0.00 | 0.00 | 52 | 1003.9 |
| 20260503173002 | 9 | 36 | 6.4 | 16.1 | 0.00 | 0.00 | 0.00 | 51 | 1005.0 |
| 20260503171559 | 9 | 18 | 4.8 | 22.5 | 0.00 | 0.00 | 0.00 | 51 | 1005.2 |
| 20260503171502 | 9 | 37 | 8.0 | 25.7 | 0.00 | 0.00 | 0.00 | 51 | 1005.4 |
| 20260503140110 | 10 | 5 | 16.1 | 25.7 | 0.00 | 0.00 | 0.00 | 54 | 1009.9 |
| 20260503130108 | 10 | 44 | 4.8 | 8.0 | 0.00 | 0.00 | 0.00 | 64 | 1010.0 |